Location: Red Rock Canyon
(36.1333°N, 115.4333°W)
Time: 14:55:36
(UTC-07:00)

ISS - Visible Passes

Search period start: 07 July 2015 00:00
Search period end: 17 July 2015 00:00
Orbit: 398 x 402 km, 51.6° (Epoch: 07 July)

Date Brightness Start Highest point End Pass type
(mag) Time Alt. Az. Time Alt. Az. Time Alt. Az.
11 Jul -2.7 04:51:15 10° SSW 04:54:23 49° SE 04:57:32 10° ENE visible
12 Jul -1.5 03:59:41 18° SSE 04:00:48 22° SE 04:03:25 10° ENE visible
13 Jul -3.1 04:40:45 15° WSW 04:43:17 61° NW 04:46:30 10° NE visible
14 Jul -3.2 03:49:09 52° S 03:49:33 58° SE 03:52:45 10° NE visible
15 Jul -0.8 02:57:28 18° E 02:57:28 18° E 02:58:39 10° ENE visible
15 Jul -1.8 04:30:02 14° W 04:32:13 27° NNW 04:35:03 10° NNE visible
16 Jul -2.9 03:38:17 52° NW 03:38:19 52° NW 03:41:31 10° NE visible
